This is the latest recevied weather packets stored in our database for station/object WI5KEY. If no packets are shown the sender has not sent any weather packets the latest 10 day(s).
| Time | Temp. | Humidity | Pressure | Rain* | Wind** | Luminosity | Snow |
|---|---|---|---|---|---|---|---|
| 1777852810 | 25° C | 43% | 1017.3 hPa | 0 mm | - | - | - |
| 1777851923 | 25° C | 44% | 1017.5 hPa | 0 mm | - | - | - |
| 1777851008 | 25.56° C | 42% | 1017.5 hPa | 0 mm | - | - | - |
| 1777850107 | 25.56° C | 43% | 1017.6 hPa | 0 mm | - | - | - |
| 1777849205 | 25.56° C | 42% | 1017.5 hPa | 0 mm | - | - | - |
| 1777848304 | 25.56° C | 43% | 1017.6 hPa | 0 mm | - | - | - |
| 1777847402 | 26.11° C | 45% | 1017.8 hPa | 0 mm | - | - | - |
| 1777846559 | 26.11° C | 43% | 1018.1 hPa | 0 mm | - | - | - |
| 1777845657 | 26.11° C | 44% | 1018.5 hPa | 0 mm | - | - | - |
| 1777844754 | 26.11° C | 41% | 1018.7 hPa | 0 mm | - | - | - |
| 1777843865 | 26.11° C | 44% | 1018.8 hPa | 0 mm | - | - | - |
| 1777842951 | 26.11° C | 42% | 1019.1 hPa | 0 mm | - | - | - |
| 1777842055 | 26.67° C | 40% | 1019.5 hPa | 0 mm | - | - | - |
| 1777841151 | 27.22° C | 42% | 1019.8 hPa | 0 mm | - | - | - |
| 1777840242 | 27.22° C | 41% | 1020.1 hPa | 0 mm | - | - | - |
| 1777839340 | 26.67° C | 44% | 1020.3 hPa | 0 mm | - | - | - |
| 1777838439 | 27.22° C | 46% | 1020.6 hPa | 0 mm | - | - | - |
| 1777837537 | 26.67° C | 44% | 1020.7 hPa | 0 mm | - | - | - |
| 1777836644 | 26.67° C | 44% | 1021 hPa | 0 mm | - | - | - |
| 1777835731 | 26.11° C | 44% | 1021.1 hPa | 0 mm | - | - | - |
| 1777834829 | 26.11° C | 45% | 1021.4 hPa | 0 mm | - | - | - |
| 1777833936 | 26.11° C | 47% | 1021.6 hPa | 0 mm | - | - | - |
| 1777833024 | 26.11° C | 46% | 1021.8 hPa | 0 mm | - | - | - |
| 1777832123 | 25.56° C | 48% | 1022.2 hPa | 0 mm | - | - | - |
| 1777831225 | 25.56° C | 48% | 1022.6 hPa | 0 mm | - | - | - |
* Rain latest hour (hover to see other rain measurements)
** Current wind speed in m/s (hover to see current wind gust speed)